Poplar Bluff, MO

4:14 PM CST on November 11, 2019 (GMT -0600)
Poplar Bluff Municipal

Weather History for KPOF - October, 2019

Change the Weather History Date:

Sunday, October 13, 2019

  Actual Average Record
Temperature  
Mean Temperature 52 °F 60 °F  
Max Temperature 70 °F 73 °F 90 °F (1924)
Min Temperature 34 °F 47 °F 30 °F (2006)
Degree Days  
Heating Degree Days 13 6  
Month to date heating degree days 52 64  
Since 1 July heating degree days 52 93  
Cooling Degree Days 0 1  
Month to date cooling degree days 49 23  
Year to date cooling degree days 1830 1550  
Growing Degree Days 2 (Base 50)    
Moisture  
Dew Point 37 °F    
Average Humidity 66    
Maximum Humidity 100    
Minimum Humidity 23    
Precipitation  
Precipitation 0.00 in 0.13 in 2.64 in (1943)
Month to date precipitation 1.03 1.65  
Year to date precipitation 55.65 36.18  
Sea Level Pressure  
Sea Level Pressure 30.03 in    
Wind  
Wind Speed 3 mph ()    
Max Wind Speed 16 mph    
Max Gust Speed 21 mph    
Visibility 10.0 miles    
Events      
T = Trace of Precipitation, MM = Missing Value Source: Averaged Metar Reports

Daily Weather History Graph

Daily Weather History Graph

Search for Another Location

Airport or City:

Astronomy

Oct. 13, 2019 Rise Set
Actual Time 7:06 AM CDT 6:27 PM CDT
Civil Twilight 6:40 AM CDT 6:53 PM CDT
Nautical Twilight 6:10 AM CDT 7:23 PM CDT
Astronomical Twilight 5:40 AM CDT 7:53 PM CDT
Moon 6:48 PM CDT (10/13) 6:43 AM CDT (10/13)
Length of Visible Light 12h 13m
Length of Day
11h 20m
Full, 100% of the Moon is Illuminated
Oct 13
Full
Oct 13
Full
Oct 21
Last Quarter
Oct 27
New
Nov 4
First Quarter

Hourly Weather History & Observations

Time (CDT) Temp. Windchill Dew Point Humidity Pressure Visibility Wind Dir Wind Speed Gust Speed Precip Events Conditions
12:53 AM 39.0 °F - 36.0 °F 89% 30.07 in 10.0 mi Calm Calm - N/A   Clear
1:53 AM 39.0 °F - 35.1 °F 86% 30.05 in 10.0 mi Calm Calm - N/A   Clear
2:53 AM 37.0 °F - 35.1 °F 93% 30.04 in 10.0 mi Calm Calm - N/A   Clear
3:53 AM 36.0 °F - 35.1 °F 97% 30.04 in 10.0 mi Calm Calm - N/A   Clear
4:53 AM 36.0 °F - 34.0 °F 93% 30.05 in 10.0 mi Calm Calm - N/A   Clear
5:53 AM 36.0 °F - 33.1 °F 89% 30.06 in 10.0 mi Calm Calm - N/A   Clear
6:53 AM 35.1 °F - 32.0 °F 89% 30.06 in 10.0 mi Calm Calm - N/A   Clear
7:53 AM 37.0 °F - 35.1 °F 93% 30.07 in 10.0 mi Calm Calm - N/A   Clear
8:53 AM 43.0 °F 41.3 °F 39.0 °F 86% 30.08 in 10.0 mi Variable 3.5 mph - N/A   Clear
9:53 AM 51.1 °F - 39.9 °F 66% 30.07 in 10.0 mi SW 6.9 mph - N/A   Clear
10:53 AM 57.9 °F - 39.9 °F 51% 30.07 in 10.0 mi SW 10.4 mph - N/A   Clear
11:53 AM 62.1 °F - 37.9 °F 41% 30.06 in 10.0 mi SW 11.5 mph - N/A   Clear
12:53 PM 64.9 °F - 37.0 °F 36% 30.04 in 10.0 mi WSW 9.2 mph - N/A   Clear
1:53 PM 68.0 °F - 33.1 °F 27% 30.00 in 10.0 mi SW 11.5 mph - N/A   Clear
2:53 PM 69.1 °F - 33.1 °F 26% 29.99 in 10.0 mi WSW 10.4 mph - N/A   Clear
3:53 PM 69.1 °F - 30.9 °F 24% 29.98 in 10.0 mi SW 9.2 mph - N/A   Clear
4:53 PM 69.1 °F - 34.0 °F 27% 29.98 in 10.0 mi SSW 9.2 mph - N/A   Clear
5:53 PM 64.9 °F - 37.9 °F 37% 29.97 in 10.0 mi South 8.1 mph - N/A   Clear
6:53 PM 59.0 °F - 39.0 °F 48% 29.99 in 10.0 mi South 4.6 mph - N/A   Clear
7:53 PM 55.0 °F - 39.9 °F 57% 30.01 in 10.0 mi Calm Calm - N/A   Clear
8:53 PM 50.0 °F - 42.1 °F 74% 30.02 in 10.0 mi SW 3.5 mph - N/A   Clear
9:53 PM 48.9 °F - 42.1 °F 77% 30.03 in 10.0 mi Calm Calm - N/A   Clear
10:53 PM 46.0 °F - 42.1 °F 86% 30.04 in 10.0 mi Calm Calm - N/A   Clear
11:53 PM 45.0 °F - 42.1 °F 90% 30.04 in 10.0 mi Calm Calm - N/A   Clear